St. Cloud, MN

10:05 AM CDT on October 23, 2019 (GMT -0500)
Saint Cloud Regional

Weather History for KSTC - May, 2019

Change the Weather History Date:

Wednesday, May 29, 2019

  Actual Average Record
Temperature  
Mean Temperature 60 °F 60 °F  
Max Temperature 73 °F 72 °F 93 °F (2018)
Min Temperature 45 °F 48 °F 31 °F (1947)
Degree Days  
Heating Degree Days 6 6  
Month to date heating degree days 409 276  
Since 1 July heating degree days 9207 8443  
Cooling Degree Days 0 1  
Month to date cooling degree days 0 21  
Year to date cooling degree days 0 23  
Growing Degree Days 10 (Base 50)    
Moisture  
Dew Point 45 °F    
Average Humidity 60    
Maximum Humidity 100    
Minimum Humidity 29    
Precipitation  
Precipitation 0.00 in 0.10 in 1.37 in (2008)
Month to date precipitation 6.34 2.74  
Year to date precipitation 13.69 8.10  
Snow  
Snow 0.00 in 0.00 in 0.00 in ()
Month to date snowfall 0.4 0.0  
Since 1 July snowfall 68.9 45.7  
Snow Depth 0.00 in    
Sea Level Pressure  
Sea Level Pressure 29.79 in    
Wind  
Wind Speed 2 mph ()    
Max Wind Speed 13 mph    
Max Gust Speed 15 mph    
Visibility 10.0 miles    
Events      
T = Trace of Precipitation, MM = Missing Value Source: Averaged Metar Reports

Daily Weather History Graph

Daily Weather History Graph

Search for Another Location

Airport or City:

Astronomy

May. 29, 2019 Rise Set
Actual Time 5:32 AM CDT 8:55 PM CDT
Civil Twilight 4:56 AM CDT 9:31 PM CDT
Nautical Twilight 4:08 AM CDT 10:19 PM CDT
Astronomical Twilight 3:08 AM CDT 11:20 PM CDT
Moon 3:31 AM CDT (5/29) 3:46 PM CDT (5/29)
Length of Visible Light 16h 35m
Length of Day
15h 22m
Waning Crescent, 23% of the Moon is Illuminated
May 29
Waning Crescent
Jun 3
New
Jun 10
First Quarter
Jun 17
Full
Jun 25
Last Quarter

Hourly Weather History & Observations

Time (CDT) Temp. Windchill Dew Point Humidity Pressure Visibility Wind Dir Wind Speed Gust Speed Precip Events Conditions
12:53 AM 51.1 °F - 48.9 °F 92% 29.81 in 10.0 mi Calm Calm - N/A   Clear
1:53 AM 50.0 °F - 48.0 °F 93% 29.81 in 10.0 mi Calm Calm - N/A   Clear
2:53 AM 48.9 °F - 48.0 °F 97% 29.80 in 10.0 mi Calm Calm - N/A   Clear
3:53 AM 48.0 °F - 46.9 °F 96% 29.80 in 10.0 mi Calm Calm - N/A   Clear
4:53 AM 46.9 °F - 46.0 °F 97% 29.80 in 10.0 mi Calm Calm - N/A   Clear
5:53 AM 46.0 °F 44.8 °F 45.0 °F 96% 29.81 in 10.0 mi NNW 3.5 mph - N/A   Clear
6:53 AM 50.0 °F - 46.0 °F 86% 29.81 in 10.0 mi NNW 3.5 mph - N/A   Clear
7:53 AM 55.0 °F - 44.1 °F 67% 29.81 in 10.0 mi NNW 3.5 mph - N/A   Clear
8:53 AM 59.0 °F - 44.1 °F 58% 29.82 in 10.0 mi Calm Calm - N/A   Clear
9:53 AM 63.0 °F - 44.1 °F 50% 29.81 in 10.0 mi Calm Calm - N/A   Clear
10:53 AM 64.9 °F - 45.0 °F 48% 29.82 in 10.0 mi South 9.2 mph - N/A   Clear
11:53 AM 68.0 °F - 42.1 °F 39% 29.81 in 10.0 mi SSW 3.5 mph - N/A   Clear
12:53 PM 71.1 °F - 42.1 °F 35% 29.80 in 10.0 mi North - - N/A   Clear
1:04 PM 71.6 °F - 42.8 °F 35% 29.78 in 10.0 mi Calm Calm - N/A   Clear
1:53 PM 71.1 °F - 44.1 °F 38% 29.80 in 10.0 mi SSW 5.8 mph - N/A   Clear
2:53 PM 71.1 °F - 43.0 °F 36% 29.79 in 10.0 mi West 5.8 mph - N/A   Clear
3:53 PM 73.0 °F - 43.0 °F 34% 29.78 in 10.0 mi South 5.8 mph - N/A   Clear
4:53 PM 73.0 °F - 42.1 °F 33% 29.76 in 10.0 mi SW 9.2 mph - N/A   Clear
5:53 PM 73.0 °F - 39.9 °F 30% 29.75 in 10.0 mi SSW 8.1 mph - N/A   Clear
6:53 PM 73.0 °F - 41.0 °F 31% 29.75 in 10.0 mi South 10.4 mph - N/A   Clear
7:53 PM 71.1 °F - 42.1 °F 35% 29.74 in 10.0 mi SSW 8.1 mph - N/A   Clear
8:53 PM 66.0 °F - 44.1 °F 45% 29.75 in 10.0 mi South 6.9 mph - N/A   Clear
9:53 PM 62.1 °F - 50.0 °F 65% 29.76 in 10.0 mi South 4.6 mph - N/A   Clear
10:53 PM 57.9 °F - 51.1 °F 78% 29.76 in 10.0 mi Calm Calm - N/A   Clear
11:53 PM 55.0 °F - 52.0 °F 89% 29.75 in 10.0 mi Calm Calm - N/A   Clear